| time (UTC) | temp F | wind direction | speed MPH | gust MPH | rain 1hr in | rain 24hr in | rain mn in | humidity % | barometer mb |
| 20260506043718 | 60 | 337 | 1.0 | 1.0 | 0.00 | 0.00 | 0.00 | 46 | |
| 20260506042718 | 61 | 270 | 2.0 | 4.0 | 0.00 | 0.00 | 0.00 | 47 | |
| 20260506040737 | 61 | 270 | 2.0 | 4.0 | 0.00 | 0.00 | 0.00 | 44 | |
| 20260506035819 | 62 | 270 | 4.0 | 4.0 | 0.00 | 0.00 | 0.00 | 43 | |
| 20260506034918 | 62 | 292 | 2.0 | 3.0 | 0.00 | 0.00 | 0.00 | 43 | |
| 20260506033918 | 63 | 247 | 3.0 | 3.0 | 0.00 | 0.00 | 0.00 | 41 | |
| 20260506032919 | 63 | 270 | 1.0 | 1.0 | 0.00 | 0.00 | 0.00 | 40 | |
| 20260506031920 | 63 | 292 | 5.0 | 5.0 | 0.00 | 0.00 | 0.00 | 39 | |
| 20260506031018 | 64 | 270 | 2.0 | 2.0 | 0.00 | 0.00 | 0.00 | 39 | |
| 20260506030019 | 64 | 304 | 4.0 | 4.0 | 0.00 | 0.00 | 0.00 | 38 | |
| 20260506025021 | 64 | 292 | 3.0 | 3.0 | 0.00 | 0.00 | 0.00 | 37 | |
| 20260506024017 | 65 | 292 | 5.0 | 5.0 | 0.00 | 0.00 | 0.00 | 37 | |
| 20260506023021 | 65 | 269 | 6.0 | 6.0 | 0.00 | 0.00 | 0.00 | 36 | |
| 20260506022118 | 65 | 269 | 2.0 | 2.0 | 0.00 | 0.00 | 0.00 | 35 | |
| 20260506021119 | 66 | 304 | 4.0 | 5.0 | 0.00 | 0.00 | 0.00 | 35 | |
| 20260506020118 | 67 | 281 | 7.0 | 8.0 | 0.00 | 0.00 | 0.00 | 34 | |
| 20260506014241 | 68 | 292 | 6.0 | 9.0 | 0.00 | 0.00 | 0.00 | 33 | |
| 20260506013319 | 69 | 270 | 10.0 | 10.0 | 0.00 | 0.00 | 0.00 | 32 | |
| 20260506012418 | 69 | 281 | 7.0 | 9.0 | 0.00 | 0.00 | 0.00 | 32 | |
| 20260506011418 | 71 | 292 | 11.0 | 11.0 | 0.00 | 0.00 | 0.00 | 31 | |
| 20260506010419 | 71 | 270 | 6.0 | 8.0 | 0.00 | 0.00 | 0.00 | 30 | |
| 20260506005436 | 71 | 202 | 2.0 | 2.0 | 0.00 | 0.00 | 0.00 | 29 | |
| 20260506004419 | 71 | 269 | 7.0 | 10.0 | 0.00 | 0.00 | 0.00 | 29 | |
| 20260506003421 | 71 | 270 | 5.0 | 5.0 | 0.00 | 0.00 | 0.00 | 28 | |
| 20260506002419 | 73 | 180 | 6.0 | 6.0 | 0.00 | 0.00 | 0.00 | 29 | |
| 20260506001421 | 72 | 225 | 5.0 | 5.0 | 0.00 | 0.00 | 0.00 | 28 | |
| 20260505235418 | 73 | 202 | 5.0 | 5.0 | 0.00 | 0.00 | 0.00 | 26 | |
| 20260505234419 | 73 | 247 | 4.0 | 4.0 | 0.00 | 0.00 | 0.00 | 25 | |
| 20260505233420 | 72 | 202 | 7.0 | 7.0 | 0.00 | 0.00 | 0.00 | 23 | |
| 20260505232419 | 0 | 0 | 0.0 | 0.0 | 0.00 | 0.00 | 0.00 | 100 | |
| 20260505231518 | 73 | 292 | 8.0 | 8.0 | 0.00 | 0.00 | 0.00 | 24 | |
| 20260505225521 | 73 | 270 | 11.0 | 11.0 | 0.00 | 0.00 | 0.00 | 26 | |
| 20260505224520 | 73 | 292 | 13.0 | 13.0 | 0.00 | 0.00 | 0.00 | 28 | |
| 20260505222519 | 73 | 247 | 8.0 | 10.0 | 0.00 | 0.00 | 0.00 | 30 | |
| 20260505221520 | 74 | 270 | 2.0 | 2.0 | 0.00 | 0.00 | 0.00 | 31 | |
| 20260505220518 | 0 | 0 | 0.0 | 0.0 | 0.00 | 0.00 | 0.00 | 100 | |
| 20260505214618 | 74 | 247 | 4.0 | 4.0 | 0.00 | 0.00 | 0.00 | 32 | |
| 20260505213628 | 74 | 225 | 8.0 | 8.0 | 0.00 | 0.00 | 0.00 | 31 | |
| 20260505212645 | 74 | 202 | 5.0 | 5.0 | 0.00 | 0.00 | 0.00 | 32 | |
| 20260505211729 | 74 | 202 | 7.0 | 7.0 | 0.00 | 0.00 | 0.00 | 33 | |
| 20260505210731 | 74 | 225 | 4.0 | 4.0 | 0.00 | 0.00 | 0.00 | 34 | |
| 20260505205743 | 74 | 236 | 8.0 | 11.0 | 0.00 | 0.00 | 0.00 | 35 | |
| 20260505203730 | 73 | 265 | 6.0 | 7.0 | 0.00 | 0.00 | 0.00 | 36 | |
| 20260505200828 | 73 | 240 | 5.0 | 6.0 | 0.00 | 0.00 | 0.00 | 38 | |
| 20260505195844 | 72 | 268 | 9.0 | 13.0 | 0.00 | 0.00 | 0.00 | 40 | |
| 20260505194931 | 73 | 203 | 15.0 | 16.0 | 0.00 | 0.00 | 0.00 | 40 | |
| 20260505193929 | 71 | 230 | 8.0 | 10.0 | 0.00 | 0.00 | 0.00 | 42 | |
| 20260505192929 | 72 | 247 | 6.0 | 6.0 | 0.00 | 0.00 | 0.00 | 42 | |
| 20260505191928 | 73 | 157 | 12.0 | 12.0 | 0.00 | 0.00 | 0.00 | 41 | |
| 20260505190929 | 72 | 247 | 4.0 | 4.0 | 0.00 | 0.00 | 0.00 | 41 | |
| 20260505190028 | 72 | 270 | 6.0 | 6.0 | 0.00 | 0.00 | 0.00 | 42 | |
| 20260505185027 | 71 | 180 | 6.0 | 6.0 | 0.00 | 0.00 | 0.00 | 41 | |
| 20260505182030 | 72 | 269 | 5.0 | 6.0 | 0.00 | 0.00 | 0.00 | 45 | |
| 20260505181028 | 72 | 225 | 7.0 | 9.0 | 0.00 | 0.00 | 0.00 | 46 | |
| 20260505180029 | 71 | 236 | 5.0 | 8.0 | 0.00 | 0.00 | 0.00 | 48 | |
| 20260505173129 | 71 | 247 | 5.0 | 6.0 | 0.00 | 0.00 | 0.00 | 55 | |
| 20260505172129 | 69 | 185 | 5.0 | 8.0 | 0.00 | 0.00 | 0.00 | 54 | |
| 20260505170230 | 68 | 225 | 6.0 | 6.0 | 0.00 | 0.00 | 0.00 | 56 | |
| 20260505165230 | 67 | 224 | 5.0 | 8.0 | 0.00 | 0.00 | 0.00 | 61 | |
| 20260505164229 | 67 | 269 | 4.0 | 4.0 | 0.00 | 0.00 | 0.00 | 64 | |
| 20260505163230 | 67 | 168 | 4.0 | 4.0 | 0.00 | 0.00 | 0.00 | 68 | |
| 20260505162328 | 69 | 247 | 2.0 | 2.0 | 0.00 | 0.00 | 0.00 | 75 | |
| 20260505161427 | 68 | 202 | 2.0 | 2.0 | 0.00 | 0.00 | 0.00 | 71 | |
| 20260505160430 | 65 | 180 | 2.0 | 2.0 | 0.00 | 0.00 | 0.00 | 67 | |
| 20260505152531 | 0 | 0 | 0.0 | 0.0 | 0.00 | 0.00 | 0.00 | 100 | |
| 20260505151528 | 0 | 0 | 0.0 | 0.0 | 0.00 | 0.00 | 0.00 | 100 | |
| 20260505150530 | 0 | 0 | 0.0 | 0.0 | 0.00 | 0.00 | 0.00 | 100 | |
| 20260505140631 | 0 | 0 | 0.0 | 0.0 | 0.00 | 0.00 | 0.00 | 100 | |
| 20260505124729 | 0 | 0 | 0.0 | 0.0 | 0.00 | 0.00 | 0.00 | 100 | |
| 20260505123729 | 0 | 0 | 0.0 | 0.0 | 0.00 | 0.00 | 0.00 | 100 | |
| 20260505121731 | 0 | 0 | 0.0 | 0.0 | 0.00 | 0.00 | 0.00 | 100 | |
| 20260505120728 | 0 | 0 | 0.0 | 0.0 | 0.00 | 0.00 | 0.00 | 100 | |
| 20260505115729 | 0 | 0 | 0.0 | 0.0 | 0.00 | 0.00 | 0.00 | 100 | |
| 20260505114729 | 0 | 0 | 0.0 | 0.0 | 0.00 | 0.00 | 0.00 | 100 | |
| 20260505113730 | 0 | 0 | 0.0 | 0.0 | 0.00 | 0.00 | 0.00 | 100 | |
| 20260505111829 | 0 | 0 | 0.0 | 0.0 | 0.00 | 0.00 | 0.00 | 100 | |
| 20260505110830 | 0 | 0 | 0.0 | 0.0 | 0.00 | 0.00 | 0.00 | 100 | |
| 20260505101829 | 0 | 0 | 0.0 | 0.0 | 0.00 | 0.00 | 0.00 | 100 | |
| 20260505100927 | 0 | 0 | 0.0 | 0.0 | 0.00 | 0.00 | 0.00 | 100 | |
| 20260505095930 | 0 | 0 | 0.0 | 0.0 | 0.00 | 0.00 | 0.00 | 100 | |
| 20260505095028 | 0 | 0 | 0.0 | 0.0 | 0.00 | 0.00 | 0.00 | 100 | |
| 20260505094127 | 0 | 0 | 0.0 | 0.0 | 0.00 | 0.00 | 0.00 | 100 | |
| 20260505091129 | 0 | 0 | 0.0 | 0.0 | 0.00 | 0.00 | 0.00 | 100 | |
| 20260505090129 | 0 | 0 | 0.0 | 0.0 | 0.00 | 0.00 | 0.00 | 100 | |
| 20260505085228 | 0 | 0 | 0.0 | 0.0 | 0.00 | 0.00 | 0.00 | 100 | |
| 20260505084230 | 0 | 0 | 0.0 | 0.0 | 0.00 | 0.00 | 0.00 | 100 | |
| 20260505083230 | 0 | 0 | 0.0 | 0.0 | 0.00 | 0.00 | 0.00 | 100 | |
| 20260505082229 | 0 | 0 | 0.0 | 0.0 | 0.00 | 0.00 | 0.00 | 100 | |
| 20260505081229 | 0 | 0 | 0.0 | 0.0 | 0.00 | 0.00 | 0.00 | 100 | |
| 20260505080229 | 0 | 0 | 0.0 | 0.0 | 0.00 | 0.00 | 0.00 | 100 | |
| 20260505075229 | 0 | 0 | 0.0 | 0.0 | 0.00 | 0.00 | 0.00 | 100 | |
| 20260505074329 | 0 | 0 | 0.0 | 0.0 | 0.00 | 0.00 | 0.00 | 100 | |
| 20260505073328 | 0 | 0 | 0.0 | 0.0 | 0.00 | 0.00 | 0.00 | 100 | |
| 20260505072414 | 0 | 0 | 0.0 | 0.0 | 0.00 | 0.00 | 0.00 | 100 | |
| 20260505071513 | 0 | 0 | 0.0 | 0.0 | 0.00 | 0.00 | 0.00 | 100 | |
| 20260505065531 | 57 | 247 | 4.0 | 4.0 | 0.00 | 0.00 | 0.00 | 85 | |
| 20260505064532 | 0 | 0 | 0.0 | 0.0 | 0.00 | 0.00 | 0.00 | 100 | |
| 20260505063530 | 58 | 202 | 2.0 | 2.0 | 0.00 | 0.00 | 0.00 | 82 | |
| 20260505062530 | 59 | 247 | 4.0 | 4.0 | 0.00 | 0.00 | 0.00 | 79 | |
| 20260505061546 | 59 | 247 | 2.0 | 2.0 | 0.00 | 0.00 | 0.00 | 76 | |
| 20260505060531 | 60 | 292 | 3.0 | 3.0 | 0.00 | 0.00 | 0.00 | 73 | |
| 20260505054531 | 62 | 225 | 4.0 | 4.0 | 0.00 | 0.00 | 0.00 | 66 | |
| 20260505052546 | 63 | 292 | 2.0 | 2.0 | 0.00 | 0.00 | 0.00 | 60 | |
| 20260505051532 | 0 | 0 | 0.0 | 0.0 | 0.00 | 0.00 | 0.00 | 100 |